FOX-1CLIFF (AO-95)

Last updated on Thu Nov 21 2024 00:03:02 GMT+0000 (Coordinated Universal Time)

1 43770U 18099N 24325.10673629 .00016519 00000+0 99145-3 0 9990 2 43770 97.5238 19.9376 0012206 184.1535 175.9596 15.10936690326069
UTC large
Height (km)
Speed (km/s)
/
Latitude / Longitude
Inclination (degrees)
Orbital Period (minutes)
Azimuth
Elevation
Range (km)
Doppler Factor

Next 0 passes for location: London (51.5072 / 0.1276)

Sorry there are no passes over London.